Location: Dammartin
(48.9032°N, 1.6195°E)
Time: 18:56:45
(UTC+00:00)

BlueWalker 3 - Pass Details

Date: 23 April 2024
Orbit: 482 x 494 km, 53.2° (Epoch: 22 May)

Event Time Altitude Azimuth Distance (km) Brightness Sun altitude
Rises 20:08:11 0° 263° (W) 2,570 6.4 -11.0°
Reaches altitude 10° 20:10:24 10° 269° (W) 1,692 5.5 -11.3°
Maximum altitude 20:14:08 52° 346° (NNW) 627 2.7 -11.8°
Drops below altitude 10° 20:17:54 10° 64° (ENE) 1,701 4.4 -12.3°
Enters shadow 20:19:19 - 68° (ENE) 2,260 5.0 -12.5°
